Cloud_Cover
100 75 71 99 66 9 6 5 5 5 5 4 78 100 100 100 85 23 13 0 0 0 0 0 0 0 0 0 0 0 34 5 10 98 100 100 57 0 0 0 0 1 11 7 97
100 100 100 100 49 91 41 9 10 13 6 5 2 74 100 100 96 24 5 0 0 0 0 0 0 0 0 0 0 0 0 99 100 100 100 100 100 24 0 0 0 0 10 34 92
100 100 65 86 98 10 6 20 56 88 90 6 5 5 100 96 100 42 31 50 0 0 0 0 0 0 0 0 0 0 0 100 100 100 100 100 100 97 30 0 0 0 0 2 13
100 100 100 100 100 98 15 14 8 12 85 58 8 5 35 92 21 100 32 74 7 2 7 0 0 0 0 0 0 0 0 59 100 100 100 100 100 100 69 18 0 0 4 0 5
100 100 100 100 100 100 100 78 14 26 11 66 100 70 50 54 98 60 5 5 100 29 10 0 0 0 0 0 0 0 0 1 100 100 100 100 100 71 6 29 10 0 2 4 5
100 100 100 100 100 100 100 100 35 0 17 11 84 100 97 100 100 86 5 5 13 100 21 1 0 0 0 0 0 0 0 0 53 100 100 100 100 100 27 4 17 5 5 0 3
100 100 100 100 100 65 100 0 1 0 0 98 33 100 100 82 86 81 19 1 5 65 100 91 0 0 0 0 0 0 0 0 0 69 100 100 67 99 7 5 2 0 5 5 5
0 0 0 0 6 12 8 0 0 0 1 96 100 96 100 0 0 2 2 6 9 100 100 100 95 2 4 0 0 0 0 0 0 0 68 53 100 32 5 5 5 0 0 5 5
93 72 10 6 10 3 1 3 16 32 97 92 97 100 65 0 0 0 0 1 3 99 100 100 98 55 0 0 1 0 0 0 0 0 0 91 100 100 40 5 5 5 0 0 5
100 92 0 4 6 23 38 37 0 1 39 84 100 90 2 0 0 0 69 0 0 21 100 82 26 100 5 0 1 0 0 0 0 0 0 8 100 100 100 42 5 13 22 0 1
76 88 67 0 99 100 100 100 3 4 100 3 22 2 0 3 0 0 99 48 45 0 43 100 25 93 98 5 4 1 0 0 0 0 0 0 23 100 100 100 9 5 96 68 0
76 94 94 100 54 49 85 100 87 88 100 91 4 4 7 0 0 1 10 82 96 41 5 99 98 100 100 100 11 5 4 0 1 0 0 0 0 77 100 100 99 5 5 31 7
72 100 100 89 68 99 14 100 90 100 98 22 5 4 7 10 37 2 1 80 75 26 5 25 68 95 100 100 26 5 5 3 12 5 0 0 0 0 70 93 100 83 5 1 3
100 100 100 100 48 55 100 72 100 34 88 2 2 59 33 25 42 0 3 10 98 1 3 70 39 100 100 100 100 80 15 100 6 5 1 0 0 0 0 4 46 100 100 15 0
100 100 100 100 100 100 100 53 90 91 23 7 39 100 91 81 7 26 2 10 16 2 4 18 100 45 100 100 100 100 100 100 100 0 5 0 0 0 0 0 1 13 5 5 5
99 100 98 57 65 100 100 100 97 97 93 99 100 100 100 100 100 100 12 5 36 88 31 100 99 100 100 100 100 100 100 100 100 13 4 2 0 1 1 0 0 0 0 5 0
100 15 26 87 98 100 100 100 100 100 98 100 100 100 100 100 100 100 100 54 100 69 62 100 59 97 100 100 100 100 100 71 32 6 0 5 0 0 4 0 0 0 0 0 0
34 0 95 5 100 100 100 100 100 100 100 100 100 100 100 100 100 91 100 53 87 64 47 100 100 95 100 100 98 100 100 58 4 4 1 18 15 10 3 2 0 0 0 0 0
1 6 77 14 86 100 100 100 100 100 100 100 100 100 92 100 100 93 66 71 100 100 46 100 40 25 100 100 100 100 100 30 5 5 20 5 5 0 0 1 0 0 0 0 0
72 68 16 55 56 100 100 100 100 100 100 100 100 100 100 99 100 89 56 96 100 100 40 40 99 100 97 100 100 100 100 47 31 85 36 5 4 4 1 5 5 2 1 4 34
25 0 99 100 33 100 100 100 100 100 100 100 100 100 98 100 78 100 94 100 100 100 100 100 100 100 100 99 100 97 35 10 41 57 53 5 5 2 0 0 0 2 9 94 61
27 0 100 100 97 100 100 100 100 100 100 100 100 100 100 100 100 100 100 100 100 100 100 98 100 100 97 97 100 100 100 100 100 99 50 69 4 0 0 5 0 26 66 75 38
97 36 70 100 100 100 100 100 100 100 100 100 100 100 100 100 100 100 100 100 100 100 100 100 100 99 99 100 100 99 100 85 54 72 48 12 4 5 4 5 5 47 62 98 80
5 8 26 100 100 100 100 100 100 100 100 100 100 100 100 100 100 100 100 100 100 100 100 100 100 87 35 53 62 26 29 57 43 8 5 5 0 0 1 0 39 100 71 100 100
16 18 87 100 81 100 100 100 100 100 100 100 100 100 99 100 100 100 100 100 100 100 100 100 100 100 100 98 5 39 68 59 54 74 5 0 1 3 0 2 100 94 94 100 100
61 88 89 100 89 100 100 100 100 100 100 100 100 100 100 100 100 100 100 100 100 100 100 100 100 100 4 4 5 5 5 5 37 5 5 5 5 5 59 100 100 100 100 100 100
100 59 100 74 100 100 100 100 100 100 100 100 100 100 100 100 100 100 100 100 100 100 100 100 100 7 43 21 5 11 26 17 5 38 33 5 3 5 96 100 100 100 100 100 100